Regional Weather Roundup
Issued by NWS

Home | Current Version | Previous Version | Graphics & Text | Print | Product List | Glossary Off
Versions: 1 2 3 4 5 6 7 8 9 10 11 12 13 14 15 16 17 18 19 20 21 22 23 24 25 26 27 28 29 30 31 32 33 34 35 36 37 38 39 40 41 42 43 44 45 46 47 48 49 50

000
ASUS43 KDMX 271407
RWRIA

WEATHER ROUNDUP FOR IOWA
NATIONAL WEATHER SERVICE DES MOINES IA
900 AM CDT WED AUG 27 2014

NOTE: "FAIR" INDICATES FEW OR NO CLOUDS BELOW 12,000 FEET WITH NO
SIGNIFICANT WEATHER AND/OR OBSTRUCTIONS TO VISIBILITY.

* - THESE STATIONS ARE NOT NWS STATIONS...THUS NOT UNDER NWS
QUALITY CONTROL.  THEY ALSO DO NOT REPORT WEATHER SUCH
AS PRECIPITATION OR FOG.

IAZ001>003-012>014-020>022-031>034-043>046-271500-
   NORTHWEST IOWA

CITY           SKY/WX    TMP DP  RH WIND       PRES   REMARKS
CARROLL *      PTSUNNY   68  63  83 E9        30.15S
CHEROKEE *     CLOUDY    61  61 100 N6        30.16S
DENISON *      MOSUNNY   68  64  88 E6        30.12S
LE MARS *      MOSUNNY   63  59  88 NE6       30.15S
ORANGE CITY *  CLOUDY    63  55  77 E7        30.17S
SHELDON *      CLOUDY    61  59  94 E5        30.18S
SIOUX CITY     LGT RAIN  65  61  87 E5        30.14R
SPENCER        CLOUDY    63  58  83 E6        30.19S
STORM LAKE *   SUNNY     63  61  94 E8        30.17R
$$

IAZ055>058-069>071-079>083-090>094-271500-
   SOUTHWEST IOWA

CITY           SKY/WX    TMP DP  RH WIND       PRES   REMARKS
ATLANTIC *     MOSUNNY   68  66  94 E8        30.13R
AUDUBON *      PTSUNNY   70  66  88 E7        30.15F
CLARINDA *     LGT RAIN  70  68  94 E6        30.15S
COUNCIL BLFS * CLOUDY    68  68 100 SE6       30.09F
CRESTON *      MOSUNNY   66  66 100 E9G16     30.13F
HARLAN  *      PTSUNNY   68  68 100 NE6       30.16S
LAMONI         LGT RAIN  68  67  96 E5        30.15F
RED OAK *      CLOUDY    68  68 100 SE10G17   30.12F
SHENANDOAH *   CLOUDY    70  68  94 E9        30.12F
$$

IAZ047>049-059>061-072>074-084-271500-
   CENTRAL IOWA

CITY           SKY/WX    TMP DP  RH WIND       PRES   REMARKS
AMES           PTSUNNY   67  63  87 E6        30.17R
ANKENY *       PTSUNNY   66  64  94 SE6       30.16S
CHARITON *     LGT RAIN  66  64  94 SE6       30.17S
DES MOINES     CLOUDY    69  63  81 E6        30.15R
GRINNELL*      CLOUDY    66  63  88 E5        30.18R
KNOXVILLE *    DRIZZLE   66  63  88 SE7       30.15S
MARSHALLTOWN   PTSUNNY   66  61  84 E7        30.16S
PELLA *        CLOUDY    66  63  88 E3        30.17R
PERRY *          N/A     68  64  88 SE7       30.16S
$$

IAZ004>006-015-016-023>025-035-036-271500-
   NORTH CENTRAL IOWA

CITY           SKY/WX    TMP DP  RH WIND       PRES   REMARKS
ALGONA *       SUNNY     66  57  72 E7        30.19S
CLARION *      PTSUNNY   66  57  72 E8        30.18S
ESTHERVILLE    CLOUDY    62  59  90 SE5       30.19S
FORT DODGE *   PTSUNNY   66  61  82 E10       30.17F
MASON CITY     CLOUDY    64  58  80 E3        30.20F
FOREST CITY *  PTSUNNY   64  59  82 E6        30.19S
IOWA FALLS *     N/A     68  57  68 E8        30.19S
$$

IAZ007>011-017>019-026>030-037>042-050>054-066-271500-
   NORTHEAST IOWA

CITY           SKY/WX    TMP DP  RH WIND       PRES   REMARKS
CEDAR RAPIDS   CLOUDY    67  62  84 E6        30.16S
CHARLES CITY * MOSUNNY   66  57  72 NE7       30.19S
CLINTON *      PTSUNNY   68  61  77 E8        30.18S
DECORAH *      PTSUNNY   63  59  88 N3        30.19F
DUBUQUE        MOSUNNY   68  59  73 NE5       30.18S
MONTICELLO *   SUNNY     68  61  77 E7        30.16S
OELWEIN *      SUNNY     68  57  68 E8        30.19R
WATERLOO       MOSUNNY   68  57  68 E8        30.17R
$$

IAZ064-065-067-068-078-271500-
   EAST CENTRAL IOWA

CITY           SKY/WX    TMP DP  RH WIND       PRES   REMARKS
DAVENPORT      PTSUNNY   70  60  70 NE9       30.16S
IOWA CITY      CLOUDY    68  62  81 VRB6      30.17R
MT. PLEASANT * PTSUNNY   73  64  73 NE7       30.14F
MUSCATINE *    SUNNY     72  63  73 E8        30.15R
QUAD CITIES    PTSUNNY   72  61  68 E10       30.14S
$$

IAZ062-063-075>077-085>089-095>099-271500-
   SOUTHEAST IOWA

CITY           SKY/WX    TMP DP  RH WIND       PRES   REMARKS
BURLINGTON     MOSUNNY   73  66  78 E6        30.14R
FAIRFIELD *    MOSUNNY   68  64  88 NE5       30.15S
FORT MADISON * CLOUDY    75  70  83 NE6       30.15R
KEOKUK *       PTSUNNY   73  68  83 NE8       30.13R
OSKALOOSA *    LGT RAIN  66  64  94 CALM      30.17R
CENTERVILLE *  HVY RAIN  68  68 100 N5        30.18R
OTTUMWA        LGT RAIN  67  64  90 NE5       30.15R
WASHINGTON *   SUNNY     68  66  94 E7        30.15S
$$

ABBREVIATIONS USED IN REMARKS
   TC - TEMPERATURES IN CELSIUS
  WCI - WIND CHILL INDEX
   HX - HEAT INDEX
  VSB - VISIBILITY
$$



USA.gov is the U.S. government's official web portal to all federal, state and local government web resources and services.